Hourly Data Report for October 21, 2015

All times are specified in Local Standard Time (LST). Add 1 hour to adjust for Daylight Saving Time where and when it is observed.

BAKER LAKE A
NUNAVUT

64°17'56.000" N
96°04'40.000" W
18.60 m
2300503
71926
YBK

Download Data

Hourly Data (October 2015)
Hourly Data Report for October 21, 2015
Temp Definition
°C
Dew Point Temp Definition
°C
Rel Hum Definition
%
Wind Dir Definition
10's deg

Wind Spd Definition
km/h
Visibility Definition
km
Stn Press Definition
kPa
Hmdx Definition


Wind Chill Definition


Weather Definition


TIME
00:00 Legend Double Dagger -14.8 -16.8 85 19 7 24.1 101.90   -20 Clear
01:00 Legend Double Dagger -14.1 -16.2 84 20 14 24.1 101.86   -22 LegendNANA
02:00 Legend Double Dagger -14.1 -16.4 83 19 8 24.1 101.87   -19 LegendNANA
03:00 Legend Double Dagger -13.6 -15.9 83 0 1 24.1 101.86   -14 Clear
04:00 Legend Double Dagger -13.5 -15.8 83 23 9 24.1 101.85   -19 LegendNANA
05:00 Legend Double Dagger -13.0 -15.5 82 24 12 24.1 101.86   -20 LegendNANA
06:00 Legend Double Dagger -13.3 -15.6 83 22 11 24.1 101.86   -20 Mainly Clear
07:00 Legend Double Dagger -12.9 -15.1 84 36 3 32.2 101.89   -15 LegendNANA
08:00 Legend Double Dagger -12.6 -14.8 84 30 8 32.2 101.92   -18 LegendNANA
09:00 Legend Double Dagger -11.9 -14.2 83 34 7 32.2 101.96   -16 Mostly Cloudy
10:00 Legend Double Dagger -11.1 -13.6 82 36 11 32.2 101.98   -17 LegendNANA
11:00 Legend Double Dagger -10.6 -13.4 80 2 9 32.2 101.99   -16 LegendNANA
12:00 Legend Double Dagger -10.0 -13.1 78 2 14 32.2 102.02   -16 Mostly Cloudy
13:00 Legend Double Dagger -9.7 -12.9 78 5 13 32.2 102.04   -16 LegendNANA
14:00 Legend Double Dagger -9.7 -12.9 78 4 11 32.2 102.07   -15 LegendNANA
15:00 Legend Double Dagger -9.9 -12.7 80 1 9 32.2 102.09   -15 Mostly Cloudy
16:00 Legend Double Dagger -9.7 -12.4 81 2 9 32.2 102.08   -15 LegendNANA
17:00 Legend Double Dagger -10.2 -12.6 83 2 9 32.2 102.10   -15 LegendNANA
18:00 Legend Double Dagger -10.1 -12.3 84 6 13 24.1 102.08   -16 Mostly Cloudy
19:00 Legend Double Dagger -9.6 -12.0 83 5 14 24.1 102.11   -16 LegendNANA
20:00 Legend Double Dagger -9.8 -12.0 84 6 17 24.1 102.13   -17 Snow
21:00 Legend Double Dagger -9.9 -11.8 86 5 21 24.1 102.12   -18 Snow
22:00 Legend Double Dagger -10.2 -12.1 86 5 19 24.1 102.08   -18 Snow
23:00 Legend Double Dagger -10.2 -12.3 85 4 16 24.1 102.04   -17 Snow

Notes on Data Quality.

Legend

  • E = Estimated
  • M = Missing
  • NA = Not Available
  • ‡ = Partner data that is not subject to review by the National Climate Archives
Date modified: